Probability
0 0 0 0 0 0 0 0 0 0 0 0 0 0 0 0 0 0 0 0 0 0 0 0 0 0 0 0 0 0 0 0 0 0 1 2 2 2 2 2 1 0 0 0
0 0 0 0 0 0 0 0 0 0 0 0 0 0 0 0 0 0 0 0 0 0 0 0 0 0 0 1 1 1 0 0 0 0 0 1 1 1 1 1 1 0 0 0
0 0 0 0 0 0 0 0 0 0 0 0 0 0 0 0 0 0 0 0 0 0 0 0 0 0 0 1 2 2 1 0 0 0 0 0 0 0 0 1 0 0 0 0
0 0 0 0 0 0 0 0 0 0 0 0 0 0 0 0 0 0 0 0 0 0 0 0 0 0 0 1 2 3 3 1 0 0 0 0 0 0 0 1 0 0 0 0
0 0 0 0 0 0 0 0 0 0 0 0 0 0 0 0 0 0 0 0 0 0 0 0 0 0 0 0 1 3 4 2 0 0 0 0 0 0 0 0 0 0 0 0
0 0 0 0 0 0 0 0 0 0 0 0 0 0 0 0 0 0 0 0 0 0 0 0 0 0 0 0 1 2 3 1 0 0 0 0 0 0 0 0 0 0 0 0
0 0 0 0 0 0 0 0 0 0 0 0 0 0 0 0 0 0 0 0 0 0 0 0 0 0 0 0 0 1 1 0 0 0 0 0 1 1 1 1 1 1 0 0
0 0 0 0 0 0 0 0 0 0 0 0 0 0 0 0 0 0 0 0 0 0 0 0 0 0 0 0 0 0 0 0 0 0 0 0 1 2 3 2 2 2 1 0
0 0 0 0 0 0 0 0 0 0 0 0 0 0 0 0 0 0 0 0 0 0 0 0 0 0 0 0 0 0 0 0 0 0 0 0 1 2 3 3 3 2 1 0
0 0 0 0 0 0 0 0 0 0 0 0 0 0 0 0 0 0 0 0 0 0 0 0 0 0 0 0 0 0 0 0 0 0 0 0 0 1 2 3 3 1 1 1
0 0 0 0 0 0 0 0 0 0 0 0 0 0 0 0 0 0 0 0 0 0 0 0 0 0 0 0 0 0 0 0 0 0 0 0 0 0 1 2 2 2 2 2
0 0 0 0 0 0 0 0 0 0 0 0 0 0 0 0 0 0 0 0 0 0 0 0 0 0 0 0 0 0 0 0 0 0 0 0 0 0 0 1 2 3 3 3
0 0 0 0 0 0 0 0 0 0 0 0 0 0 0 0 0 0 0 0 0 0 0 0 0 0 0 0 0 0 0 0 0 0 0 0 0 0 0 0 2 3 4 3
0 0 0 0 0 0 0 0 0 0 0 0 0 0 0 0 0 0 0 0 0 0 0 0 0 0 0 0 0 0 0 0 0 0 0 0 0 0 0 0 1 3 3 3
0 0 0 0 0 0 0 0 0 0 0 0 0 0 0 0 0 0 0 0 0 0 0 0 0 0 0 0 0 0 0 0 0 0 0 0 0 1 1 1 1 3 3 3
0 0 0 0 0 0 0 0 0 0 0 0 0 0 0 0 0 0 0 0 0 0 0 0 0 0 0 0 0 0 0 0 0 0 0 0 0 1 1 1 1 2 2 1
0 0 0 0 0 0 0 0 0 0 0 0 0 0 0 0 0 0 0 0 0 0 0 0 0 0 0 0 0 0 0 0 0 0 0 0 0 0 0 0 1 1 1 0
0 0 0 0 0 0 0 0 0 0 0 0 0 0 0 0 0 0 0 0 0 0 0 0 0 0 0 0 0 0 0 0 0 0 0 0 0 0 0 0 0 0 0 0
0 0 0 0 0 0 0 0 0 0 0 0 0 0 0 0 0 0 0 0 0 0 0 0 0 0 0 0 0 0 0 0 0 0 0 0 0 0 0 0 0 0 0 0
0 0 0 0 0 0 0 0 0 0 0 0 0 0 0 0 0 0 0 0 0 0 0 0 0 0 0 0 0 0 0 0 0 0 0 0 0 0 0 0 0 0 0 0
0 0 0 0 0 0 0 0 0 0 0 0 0 0 0 0 0 0 0 0 0 0 0 0 0 0 0 0 0 0 0 0 0 0 0 0 0 0 0 0 0 0 0 0
0 0 0 0 0 0 0 0 0 0 0 0 0 0 0 0 0 0 0 0 0 0 0 0 0 0 0 0 0 0 0 0 0 0 0 0 0 0 0 0 0 0 0 0
0 0 0 0 0 0 0 0 0 0 0 0 0 0 0 0 0 0 0 0 0 0 0 0 0 0 0 0 0 0 0 0 0 0 0 0 0 0 0 0 0 0 0 0
0 0 0 0 0 0 0 0 0 0 0 0 0 0 0 0 0 0 0 0 0 0 0 0 0 0 0 0 0 0 0 0 0 0 0 0 0 0 0 0 0 0 0 0
0 0 0 0 0 0 0 0 0 0 0 0 0 0 0 0 0 0 0 0 0 0 0 0 0 0 0 0 0 0 0 0 0 0 0 0 0 0 0 0 0 0 0 0
0 0 0 0 0 0 0 0 0 0 0 0 0 0 0 0 0 0 0 0 0 0 0 0 0 0 0 0 0 0 0 0 0 0 0 0 0 0 0 0 0 0 0 0
Wind_Speed
4 6 9 11 12 7 6 8 10 7 4 7 13 16 15 11 11 13 13 13 13 13 11 8 8 8 9 10 11 12 13 13 11 9 9 9 9 8 8 8 9 10 10 10
5 10 8 6 8 8 8 9 9 5 3 6 11 17 15 14 15 14 15 14 14 13 10 8 8 7 8 10 10 11 12 12 13 11 9 7 7 7 8 7 9 11 11 11
9 3 5 7 8 10 11 12 9 5 3 5 9 14 12 10 11 12 12 12 11 10 10 8 7 7 7 8 9 8 11 11 12 12 9 6 6 5 7 9 8 10 11 11
7 5 5 8 9 10 11 9 8 6 6 5 5 10 9 8 9 10 10 9 9 9 8 7 6 6 6 7 6 7 8 9 10 11 11 12 10 10 10 8 7 8 10 10
5 4 5 8 9 10 6 4 7 7 8 9 8 10 8 5 9 9 8 8 8 7 7 7 6 6 6 5 5 5 6 7 8 10 12 12 11 9 7 7 8 8 8 9
5 4 5 6 5 6 4 3 3 4 5 10 12 12 10 5 6 4 4 4 4 4 4 5 4 4 4 4 3 3 4 5 6 8 9 11 12 11 9 9 8 7 6 6
3 4 3 4 4 5 7 6 4 5 7 9 5 10 9 3 4 4 3 3 3 3 3 3 3 3 4 4 3 2 2 3 3 5 7 8 10 10 10 9 8 7 6 5
3 4 4 4 6 7 10 10 7 6 7 5 6 10 5 2 3 3 3 3 4 4 4 4 4 4 4 4 3 3 2 2 1 2 3 4 6 5 5 7 6 6 5 5
3 3 1 4 3 6 7 8 5 2 2 5 7 6 4 2 2 3 3 4 5 5 5 6 6 5 5 5 5 4 3 3 2 2 1 1 3 4 4 5 5 4 4 3
2 3 2 2 3 4 4 4 4 5 5 7 7 7 4 1 1 2 4 5 5 6 6 6 6 6 5 5 5 5 5 4 3 3 2 1 1 1 3 3 3 3 3 3
2 2 2 2 4 6 5 5 4 4 4 5 5 3 1 2 1 2 3 5 6 5 5 5 5 5 5 5 5 5 5 5 5 4 3 2 1 1 1 1 2 3 2 3
2 2 3 4 2 3 4 6 5 4 4 4 4 3 2 1 2 3 4 5 5 5 5 5 5 5 5 5 5 5 4 5 5 4 3 3 2 1 1 1 1 2 2 2
2 2 2 2 2 1 3 5 7 5 3 5 7 5 1 3 4 4 5 6 5 5 5 5 5 5 5 5 5 5 4 4 4 3 3 3 2 2 1 1 1 1 1 1
2 2 4 5 3 2 5 6 7 7 6 8 11 11 8 7 7 7 7 6 6 5 4 5 5 5 5 5 4 5 4 4 3 3 3 3 3 2 1 1 1 1 0 1
2 3 4 6 6 5 7 9 9 11 11 10 11 13 12 9 8 8 7 7 7 6 5 5 5 5 5 5 4 4 4 4 3 2 2 2 2 2 2 1 1 1 1 1
3 2 3 6 5 5 7 9 10 11 12 13 14 15 10 8 7 8 8 8 7 7 6 6 6 6 5 5 5 4 4 4 3 2 2 2 2 1 1 1 1 1 1 1
3 2 3 5 6 5 8 8 9 8 9 10 12 11 8 8 8 9 10 8 7 7 7 7 7 6 5 5 5 5 4 3 3 2 2 2 1 1 1 1 1 1 1 1
4 3 2 3 2 6 4 3 6 8 8 8 8 8 8 9 10 10 9 8 8 9 8 8 7 7 6 5 5 4 4 3 3 3 3 2 2 1 0 0 1 0 0 1
6 4 2 2 4 7 7 4 3 5 8 6 7 8 9 9 8 8 5 6 8 9 8 8 7 6 6 5 4 4 3 3 3 3 3 3 2 1 1 1 1 1 1 1
3 4 3 3 5 7 4 2 3 4 7 3 5 7 8 7 8 8 7 9 10 9 7 6 5 5 5 5 4 3 4 4 4 4 4 3 2 2 2 2 1 1 1 1
2 3 5 6 7 8 7 4 2 4 4 4 5 7 8 8 10 11 11 10 9 8 7 6 5 5 5 4 3 4 5 5 4 3 3 3 2 2 2 2 1 1 1 1
6 5 6 5 7 8 2 2 4 5 5 5 7 7 9 10 11 11 11 10 9 8 7 6 5 5 4 3 3 5 5 4 3 3 3 3 2 2 1 1 1 2 2 2
8 7 5 7 8 4 2 5 5 4 6 7 7 9 9 10 11 11 11 10 8 7 6 5 5 6 5 3 3 5 5 3 3 3 3 2 2 1 1 2 2 2 2 2
6 4 6 8 10 9 8 7 7 7 8 9 9 10 10 11 11 11 10 9 8 6 5 4 4 5 5 4 4 4 4 3 2 3 3 2 2 2 2 2 2 3 3 3
7 5 6 10 10 8 8 7 8 8 8 9 9 9 9 10 11 11 9 8 7 6 5 4 4 5 6 5 5 4 3 2 3 3 3 2 2 2 2 2 2 3 3 3
7 9 9 10 7 7 8 5 5 6 8 8 8 9 7 8 9 9 8 7 6 5 5 4 5 5 6 5 5 4 3 3 3 3 3 2 2 2 2 2 1 1 2 3
Wind_Direction
190 207 213 213 218 247 236 234 236 243 254 246 248 256 257 258 261 259 256 255 254 254 257 253 244 236 230 224 221 220 218 213 207 204 206 210 215 215 215 218 219 218 216 213
198 225 229 227 223 230 233 240 244 256 263 257 265 266 264 256 253 255 256 254 256 259 260 256 249 241 234 231 226 225 223 217 210 209 207 210 212 216 217 216 218 220 217 216
218 234 216 211 215 221 231 236 238 249 283 270 279 267 249 246 244 249 252 255 258 261 262 264 258 250 243 239 235 231 228 223 217 212 207 203 207 212 213 216 217 217 216 215
235 241 225 215 218 217 234 231 234 238 247 251 253 272 251 243 244 247 250 250 254 254 258 262 261 259 253 248 242 236 232 227 220 211 209 208 209 214 217 215 214 213 213 214
222 213 216 225 225 215 231 210 221 235 246 258 240 258 265 240 247 249 247 251 257 261 262 263 265 268 268 264 250 243 236 230 223 215 213 214 219 222 220 213 213 213 210 212
243 237 233 236 235 215 192 175 210 227 231 245 233 235 265 234 248 258 251 258 276 288 284 284 293 298 298 298 281 258 243 235 226 218 216 216 219 219 216 214 212 212 209 208
229 221 216 211 200 191 194 181 191 201 213 236 206 225 252 258 262 271 285 304 313 326 329 334 339 342 343 339 329 311 277 257 234 218 218 221 222 221 221 220 218 215 212 211
218 220 205 204 205 199 202 204 209 216 222 226 204 231 243 310 302 299 310 329 351 1 5 10 5 3 1 355 349 348 335 316 293 233 222 220 224 225 225 224 222 220 217 216
234 247 215 227 226 199 193 212 234 267 271 248 226 242 266 325 352 352 355 11 7 6 11 13 11 10 7 6 4 359 358 352 343 325 288 229 225 225 227 227 223 223 221 214
262 262 265 242 211 212 223 185 184 208 220 235 240 238 234 240 322 3 13 4 358 3 11 12 9 8 8 3 4 12 11 7 0 357 346 333 285 249 235 229 225 221 220 212
250 249 260 196 207 200 186 187 199 206 240 241 245 242 136 227 309 3 7 358 355 3 5 3 1 2 2 5 8 12 10 10 10 5 358 359 348 311 265 240 237 228 220 211
262 254 255 247 262 267 231 209 195 209 225 244 260 260 81 5 355 355 353 350 348 347 347 350 354 358 1 1 2 2 4 6 4 358 354 355 357 350 329 280 262 238 219 214
261 231 243 235 196 182 221 223 221 227 232 230 238 247 93 357 346 338 340 341 339 338 341 345 349 351 351 350 349 349 350 355 358 357 357 357 353 353 342 328 327 296 217 205
254 230 234 244 268 263 247 241 229 220 231 239 241 259 276 302 312 320 324 324 326 325 327 336 339 340 339 339 340 339 340 344 353 355 357 355 347 341 336 348 15 31 100 152
284 236 244 271 280 265 263 255 238 231 235 243 256 263 273 285 293 302 308 313 318 320 323 326 328 329 330 331 329 328 328 331 337 343 341 338 343 351 358 5 9 32 62 93
323 268 257 270 278 275 272 267 253 244 242 244 257 266 281 284 286 297 305 306 306 310 316 320 322 323 321 320 316 312 311 314 314 314 316 324 335 358 19 13 2 31 66 83
284 275 272 270 294 276 260 252 241 241 242 244 253 268 289 291 293 295 298 296 293 302 309 311 311 310 308 308 303 299 299 301 298 300 306 311 315 329 355 29 41 40 55 82
246 251 260 285 289 244 257 278 253 250 258 251 257 278 287 290 294 292 289 289 296 302 301 301 304 304 306 305 305 306 304 296 289 292 297 303 298 293 320 76 99 60 84 120
226 223 227 241 262 273 283 267 245 251 266 260 267 288 302 310 301 288 288 300 298 297 293 293 297 300 302 302 307 305 297 292 289 290 291 294 284 265 244 222 206 198 163 141
197 206 217 226 248 256 269 293 282 258 264 288 296 302 308 312 298 299 314 311 305 303 299 298 300 300 296 303 307 294 287 284 281 287 289 286 274 255 243 232 220 203 162 159
193 209 220 231 248 264 272 277 231 235 285 317 300 297 297 286 285 298 307 305 302 299 298 296 290 287 289 296 288 280 281 278 288 298 289 276 266 255 242 228 199 174 157 143
215 215 218 215 231 253 238 180 226 277 307 301 301 301 296 290 292 293 297 300 301 299 297 296 295 296 303 297 278 279 280 293 302 292 279 271 263 254 229 205 187 170 160 154
228 223 219 218 236 273 235 238 264 286 288 294 297 300 297 294 294 297 297 296 297 296 298 302 297 298 301 295 275 274 289 305 300 287 271 266 259 236 212 204 189 174 173 176
242 235 239 255 260 263 265 267 273 279 280 288 290 293 293 290 293 296 296 295 295 298 299 300 295 292 297 302 293 283 288 285 271 263 261 253 240 228 213 210 199 192 190 188
237 213 232 253 268 281 267 262 272 280 285 287 290 288 286 286 287 290 293 295 296 299 302 297 287 287 292 299 294 292 280 263 259 260 254 249 239 226 216 214 211 214 216 203
216 214 226 248 249 250 270 280 280 278 283 288 293 291 287 282 284 290 290 294 296 294 297 294 289 288 292 296 292 286 268 244 237 245 242 237 236 226 212 201 192 187 197 188